WAT334 YSSY-NZAA

Flight info

Callsign WAT334
Flight time 2h 23m
Altitude 37000
Route MARUB7/34R EVONN L521 LUNBI
Aircraft B77W/H-SDE1E2E3FGHIJ2J3J4J5M1RWXY/LB1D1

Departure

Time 2026-05-07 14:01
Airport Sydney Kingsford Smith International Airport (YSSY)

Arrival

Time 2026-05-07 16:25
Airport Auckland International Airport (NZAA)
Time Latitude Longitude Altitude Speed Heading
2026-05-07 13:26 -33.93480 151.16794 35 ft 0 kts 258°
2026-05-07 13:44 -33.93478 151.16805 34 ft 2 kts 258°
2026-05-07 13:44 -33.93475 151.16823 35 ft 2 kts 258°
2026-05-07 13:45 -33.93471 151.16841 35 ft 2 kts 258°
2026-05-07 13:45 -33.93469 151.16858 34 ft 2 kts 258°
2026-05-07 13:45 -33.93465 151.16876 34 ft 2 kts 258°
2026-05-07 13:45 -33.93462 151.16893 34 ft 2 kts 250°
2026-05-07 13:46 -33.93453 151.16905 34 ft 2 kts 189°
2026-05-07 13:46 -33.93439 151.16904 34 ft 2 kts 161°
2026-05-07 13:46 -33.93425 151.16898 34 ft 2 kts 165°
2026-05-07 13:46 -33.93411 151.16895 34 ft 0 kts 168°
2026-05-07 13:50 -33.93412 151.16895 34 ft 1 kts 168°
2026-05-07 13:50 -33.93454 151.16905 33 ft 9 kts 165°
2026-05-07 13:50 -33.93505 151.16954 32 ft 10 kts 112°
2026-05-07 13:51 -33.93502 151.17046 31 ft 11 kts 92°
2026-05-07 13:51 -33.93557 151.17116 28 ft 12 kts 166°
2026-05-07 13:51 -33.93646 151.17140 26 ft 13 kts 167°
2026-05-07 13:51 -33.93733 151.17165 25 ft 12 kts 167°
2026-05-07 13:52 -33.93816 151.17188 24 ft 12 kts 168°
2026-05-07 13:52 -33.93910 151.17210 25 ft 14 kts 168°
2026-05-07 13:52 -33.94005 151.17235 26 ft 12 kts 168°
2026-05-07 13:52 -33.94085 151.17255 26 ft 10 kts 169°
2026-05-07 13:53 -33.94156 151.17271 26 ft 9 kts 168°
2026-05-07 13:53 -33.94217 151.17288 27 ft 8 kts 168°
2026-05-07 13:53 -33.94269 151.17302 28 ft 6 kts 167°
2026-05-07 13:53 -33.94323 151.17316 28 ft 9 kts 168°
2026-05-07 13:54 -33.94398 151.17335 28 ft 12 kts 168°
2026-05-07 13:54 -33.94479 151.17355 28 ft 11 kts 168°
2026-05-07 13:54 -33.94553 151.17374 28 ft 10 kts 168°
2026-05-07 13:54 -33.94621 151.17390 28 ft 9 kts 169°
2026-05-07 13:55 -33.94685 151.17409 27 ft 9 kts 166°
2026-05-07 13:55 -33.94749 151.17427 26 ft 9 kts 166°
2026-05-07 13:55 -33.94826 151.17447 26 ft 14 kts 169°
2026-05-07 13:55 -33.94924 151.17471 25 ft 13 kts 168°
2026-05-07 13:56 -33.94933 151.17473 25 ft 0 kts 168°
2026-05-07 13:56 -33.94934 151.17473 25 ft 0 kts 168°
2026-05-07 13:56 -33.94971 151.17482 25 ft 9 kts 168°
2026-05-07 13:57 -33.95046 151.17502 24 ft 11 kts 167°
2026-05-07 13:57 -33.95123 151.17523 23 ft 11 kts 167°
2026-05-07 13:57 -33.95200 151.17545 22 ft 11 kts 169°
2026-05-07 13:57 -33.95274 151.17561 22 ft 10 kts 168°
2026-05-07 13:58 -33.95340 151.17580 21 ft 9 kts 168°
2026-05-07 13:58 -33.95401 151.17595 21 ft 8 kts 167°
2026-05-07 13:58 -33.95466 151.17612 21 ft 10 kts 167°
2026-05-07 13:58 -33.95541 151.17631 21 ft 11 kts 168°
2026-05-07 13:59 -33.95636 151.17656 21 ft 14 kts 168°
2026-05-07 13:59 -33.95730 151.17680 22 ft 13 kts 168°
2026-05-07 13:59 -33.95821 151.17703 22 ft 16 kts 168°
2026-05-07 13:59 -33.95953 151.17738 22 ft 21 kts 167°
2026-05-07 14:00 -33.96115 151.17781 22 ft 25 kts 169°
2026-05-07 14:00 -33.96301 151.17827 22 ft 26 kts 168°
2026-05-07 14:00 -33.96430 151.17899 21 ft 16 kts 107°
2026-05-07 14:00 -33.96417 151.18024 22 ft 14 kts 56°
2026-05-07 14:01 -33.96330 151.18037 22 ft 15 kts 347°
2026-05-07 14:01 -33.96006 151.17953 22 ft 93 kts 347°
2026-05-07 14:01 -33.95067 151.17714 108 ft 174 kts 344°
2026-05-07 14:01 -33.93790 151.17432 1034 ft 195 kts 345°
2026-05-07 14:02 -33.92492 151.17252 2115 ft 200 kts 356°
2026-05-07 14:02 -33.91036 151.17566 2647 ft 225 kts 21°
2026-05-07 14:02 -33.89832 151.18906 3121 ft 247 kts 65°
2026-05-07 14:02 -33.89522 151.20937 3574 ft 259 kts 104°
2026-05-07 14:03 -33.90113 151.23027 4294 ft 267 kts 119°
2026-05-07 14:03 -33.90858 151.25050 5377 ft 268 kts 120°
2026-05-07 14:03 -33.91621 151.27103 6421 ft 271 kts 120°
2026-05-07 14:03 -33.92395 151.29187 7438 ft 274 kts 121°
2026-05-07 14:04 -33.93178 151.31290 8320 ft 281 kts 121°
2026-05-07 14:04 -33.93976 151.33440 9247 ft 285 kts 122°
2026-05-07 14:04 -33.94785 151.35619 10141 ft 289 kts 122°
2026-05-07 14:04 -33.95624 151.37868 10753 ft 305 kts 122°
2026-05-07 14:05 -33.96520 151.40266 11310 ft 323 kts 122°
2026-05-07 14:05 -33.97466 151.42807 11934 ft 339 kts 122°
2026-05-07 14:05 -33.98451 151.45453 12519 ft 356 kts 122°
2026-05-07 14:05 -33.99490 151.48250 13118 ft 372 kts 122°
2026-05-07 14:06 -34.00554 151.51125 13775 ft 386 kts 122°
2026-05-07 14:06 -34.01656 151.54111 14573 ft 395 kts 122°
2026-05-07 14:06 -34.02782 151.57169 15417 ft 403 kts 122°
2026-05-07 14:06 -34.03923 151.60268 16220 ft 412 kts 122°
2026-05-07 14:07 -34.05089 151.63444 17104 ft 417 kts 122°
2026-05-07 14:07 -34.06272 151.66672 17878 ft 425 kts 122°
2026-05-07 14:07 -34.07493 151.70001 18549 ft 435 kts 122°
2026-05-07 14:07 -34.08708 151.73322 19321 ft 442 kts 121°
2026-05-07 14:08 -34.09963 151.76756 20015 ft 450 kts 122°
2026-05-07 14:08 -34.11230 151.80234 20837 ft 455 kts 121°
2026-05-07 14:08 -34.12549 151.83855 21602 ft 462 kts 121°
2026-05-07 14:08 -34.13843 151.87415 22293 ft 469 kts 121°
2026-05-07 14:09 -34.15158 151.91038 22986 ft 475 kts 121°
2026-05-07 14:09 -34.16484 151.94699 23698 ft 481 kts 121°
2026-05-07 14:09 -34.17827 151.98415 24418 ft 486 kts 120°
2026-05-07 14:09 -34.19206 152.02241 25121 ft 492 kts 120°
2026-05-07 14:10 -34.20515 152.06157 25826 ft 500 kts 116°
2026-05-07 14:10 -34.21675 152.10170 26535 ft 505 kts 116°
2026-05-07 14:10 -34.22815 152.14159 27095 ft 512 kts 115°
2026-05-07 14:10 -34.23993 152.18265 27657 ft 519 kts 115°
2026-05-07 14:11 -34.25182 152.22403 28382 ft 522 kts 115°
2026-05-07 14:11 -34.26368 152.26531 29038 ft 526 kts 115°
2026-05-07 14:11 -34.27570 152.30702 29714 ft 529 kts 116°
2026-05-07 14:11 -34.28784 152.34924 30461 ft 529 kts 116°
2026-05-07 14:12 -34.29993 152.39130 31345 ft 526 kts 115°
2026-05-07 14:12 -34.31173 152.43237 32165 ft 523 kts 116°
2026-05-07 14:12 -34.32377 152.47429 32941 ft 520 kts 115°
2026-05-07 14:12 -34.33551 152.51520 33526 ft 520 kts 115°
2026-05-07 14:13 -34.34745 152.55681 34048 ft 521 kts 115°
2026-05-07 14:13 -34.35921 152.59781 34493 ft 521 kts 115°
2026-05-07 14:13 -34.37118 152.63965 34914 ft 522 kts 115°
2026-05-07 14:13 -34.38292 152.68071 35215 ft 525 kts 114°
2026-05-07 14:14 -34.39505 152.72316 35457 ft 529 kts 114°
2026-05-07 14:14 -34.40712 152.76550 35658 ft 533 kts 114°
2026-05-07 14:14 -34.41913 152.80772 35997 ft 534 kts 113°
2026-05-07 14:14 -34.43121 152.85025 36378 ft 534 kts 113°
2026-05-07 14:15 -34.44326 152.89272 36649 ft 537 kts 113°
2026-05-07 14:15 -34.45547 152.93579 36925 ft 539 kts 113°
2026-05-07 14:15 -34.46750 152.97832 36997 ft 542 kts 113°
2026-05-07 14:16 -34.49191 153.06483 36999 ft 539 kts 113°
2026-05-07 14:16 -34.51606 153.15065 37014 ft 541 kts 112°
2026-05-07 14:17 -34.54024 153.23692 37008 ft 540 kts 113°
2026-05-07 14:17 -34.56439 153.32327 37002 ft 541 kts 112°
2026-05-07 14:18 -34.58843 153.40950 37000 ft 541 kts 113°
2026-05-07 14:18 -34.61245 153.49593 36991 ft 541 kts 112°
2026-05-07 14:19 -34.63647 153.58261 36989 ft 542 kts 112°
2026-05-07 14:19 -34.66032 153.66895 36975 ft 542 kts 112°
2026-05-07 14:20 -34.68426 153.75592 36972 ft 541 kts 112°
2026-05-07 14:20 -34.70799 153.84236 36969 ft 541 kts 112°
2026-05-07 14:21 -34.73163 153.92879 36943 ft 542 kts 112°
2026-05-07 14:21 -34.75534 154.01570 36946 ft 542 kts 112°
2026-05-07 14:21 -34.76719 154.05924 37069 ft 544 kts 112°
2026-05-07 14:22 -34.77909 154.10303 36968 ft 542 kts 112°
2026-05-07 14:22 -34.80233 154.18883 36928 ft 539 kts 112°
2026-05-07 14:23 -34.82591 154.27606 36924 ft 542 kts 112°
2026-05-07 14:23 -34.84919 154.36253 36925 ft 540 kts 111°
2026-05-07 14:24 -34.87247 154.44928 36941 ft 540 kts 112°
2026-05-07 14:24 -34.89567 154.53597 36912 ft 540 kts 112°
2026-05-07 14:25 -34.91876 154.62256 36915 ft 538 kts 112°
2026-05-07 14:25 -34.94166 154.70866 36903 ft 540 kts 111°
2026-05-07 14:26 -34.96474 154.79578 36889 ft 537 kts 111°
2026-05-07 14:26 -34.98751 154.88200 36873 ft 537 kts 111°
2026-05-07 14:27 -35.01021 154.96820 36871 ft 535 kts 111°
2026-05-07 14:27 -35.03287 155.05456 36876 ft 537 kts 111°
2026-05-07 14:28 -35.05554 155.14128 36864 ft 536 kts 111°
2026-05-07 14:28 -35.07818 155.22810 36861 ft 538 kts 110°
2026-05-07 14:29 -35.10062 155.31455 36864 ft 536 kts 110°
2026-05-07 14:29 -35.12315 155.40155 36856 ft 538 kts 111°
2026-05-07 14:30 -35.14546 155.48805 36870 ft 537 kts 110°
2026-05-07 14:30 -35.16783 155.57504 36848 ft 536 kts 110°
2026-05-07 14:31 -35.19005 155.66170 36832 ft 538 kts 110°
2026-05-07 14:31 -35.21236 155.74905 36847 ft 538 kts 109°
2026-05-07 14:32 -35.23451 155.83604 36826 ft 537 kts 109°
2026-05-07 14:32 -35.25660 155.92308 36813 ft 537 kts 109°
2026-05-07 14:33 -35.27855 156.00987 36823 ft 537 kts 109°
2026-05-07 14:33 -35.30049 156.09694 36823 ft 538 kts 109°
2026-05-07 14:34 -35.32252 156.18463 36817 ft 536 kts 109°
2026-05-07 14:34 -35.34431 156.27168 36820 ft 537 kts 109°
2026-05-07 14:35 -35.36597 156.35852 36809 ft 536 kts 108°
2026-05-07 14:35 -35.38774 156.44606 36801 ft 536 kts 109°
2026-05-07 14:36 -35.40931 156.53308 36809 ft 539 kts 108°
2026-05-07 14:36 -35.43086 156.62039 36804 ft 537 kts 108°
2026-05-07 14:37 -35.45239 156.70787 36786 ft 538 kts 108°
2026-05-07 14:37 -35.48466 156.83955 36773 ft 538 kts 107°
2026-05-07 14:38 -35.50606 156.92729 36774 ft 537 kts 107°
2026-05-07 14:38 -35.52733 157.01480 36776 ft 536 kts 107°
2026-05-07 14:39 -35.54855 157.10237 36777 ft 538 kts 107°
2026-05-07 14:39 -35.56971 157.19006 36780 ft 536 kts 107°
2026-05-07 14:40 -35.59081 157.27779 36772 ft 538 kts 107°
2026-05-07 14:40 -35.61192 157.36586 36759 ft 536 kts 107°
2026-05-07 14:41 -35.63284 157.45346 36757 ft 536 kts 106°
2026-05-07 14:41 -35.65367 157.54097 36752 ft 536 kts 107°
2026-05-07 14:42 -35.67442 157.62846 36757 ft 537 kts 106°
2026-05-07 14:42 -35.69516 157.71626 36735 ft 536 kts 105°
2026-05-07 14:43 -35.71584 157.80409 36730 ft 535 kts 105°
2026-05-07 14:43 -35.73649 157.89208 36723 ft 534 kts 105°
2026-05-07 14:44 -35.75701 157.97989 36725 ft 535 kts 105°
2026-05-07 14:44 -35.77734 158.06728 36723 ft 535 kts 104°
2026-05-07 14:45 -35.79375 158.15681 36731 ft 536 kts 101°
2026-05-07 14:45 -35.80911 158.24623 36729 ft 535 kts 101°
2026-05-07 14:46 -35.82436 158.33546 36724 ft 534 kts 100°
2026-05-07 14:46 -35.83960 158.42493 36718 ft 534 kts 100°
2026-05-07 14:47 -35.85477 158.51450 36718 ft 534 kts 100°
2026-05-07 14:47 -35.86989 158.60411 36717 ft 535 kts 100°
2026-05-07 14:48 -35.88498 158.69398 36706 ft 534 kts 99°
2026-05-07 14:48 -35.89992 158.78343 36698 ft 536 kts 99°
2026-05-07 14:49 -35.91482 158.87300 36698 ft 535 kts 99°
2026-05-07 14:49 -35.92971 158.96301 36689 ft 535 kts 98°
2026-05-07 14:50 -35.94448 159.05264 36701 ft 534 kts 98°
2026-05-07 14:50 -35.95916 159.14218 36703 ft 534 kts 98°
2026-05-07 14:51 -35.97377 159.23181 36716 ft 536 kts 98°
2026-05-07 14:51 -35.98836 159.32167 36714 ft 535 kts 98°
2026-05-07 14:52 -36.00284 159.41136 36700 ft 535 kts 98°
2026-05-07 14:52 -36.01725 159.50105 36709 ft 534 kts 98°
2026-05-07 14:53 -36.03166 159.59122 36707 ft 535 kts 98°
2026-05-07 14:53 -36.04596 159.68112 36698 ft 536 kts 97°
2026-05-07 14:54 -36.06019 159.77104 36671 ft 535 kts 97°
2026-05-07 14:54 -36.07438 159.86119 36665 ft 535 kts 97°
2026-05-07 14:55 -36.08851 159.95142 36661 ft 536 kts 97°
2026-05-07 14:55 -36.10257 160.04163 36661 ft 536 kts 97°
2026-05-07 14:56 -36.11655 160.13184 36668 ft 536 kts 96°
2026-05-07 14:56 -36.13044 160.22186 36668 ft 534 kts 96°
2026-05-07 14:57 -36.14426 160.31195 36661 ft 535 kts 96°
2026-05-07 14:57 -36.15799 160.40195 36658 ft 536 kts 96°
2026-05-07 14:58 -36.17171 160.49231 36663 ft 534 kts 96°
2026-05-07 14:58 -36.18535 160.58264 36659 ft 535 kts 96°
2026-05-07 14:59 -36.19889 160.67279 36641 ft 535 kts 95°
2026-05-07 14:59 -36.21228 160.76241 36646 ft 533 kts 95°
2026-05-07 15:00 -36.22567 160.85252 36648 ft 535 kts 95°
2026-05-07 15:00 -36.23905 160.94301 36653 ft 531 kts 94°
2026-05-07 15:01 -36.25221 161.03259 36676 ft 534 kts 94°
2026-05-07 15:01 -36.26542 161.12291 36676 ft 532 kts 94°
2026-05-07 15:02 -36.27851 161.21300 36678 ft 533 kts 94°
2026-05-07 15:02 -36.29158 161.30331 36646 ft 532 kts 94°
2026-05-07 15:03 -36.30455 161.39368 36663 ft 538 kts 94°
2026-05-07 15:03 -36.31755 161.48442 36666 ft 535 kts 94°
2026-05-07 15:04 -36.33042 161.57504 36700 ft 537 kts 94°
2026-05-07 15:04 -36.34327 161.66585 36678 ft 536 kts 93°
2026-05-07 15:05 -36.35603 161.75656 36676 ft 533 kts 93°
2026-05-07 15:05 -36.36866 161.84694 36650 ft 536 kts 93°
2026-05-07 15:06 -36.38128 161.93768 36655 ft 535 kts 93°
2026-05-07 15:06 -36.39383 162.02852 36662 ft 535 kts 93°
2026-05-07 15:07 -36.40626 162.11906 36655 ft 535 kts 92°
2026-05-07 15:07 -36.41862 162.20952 36656 ft 533 kts 92°
2026-05-07 15:08 -36.43095 162.30028 36669 ft 534 kts 93°
2026-05-07 15:08 -36.44323 162.39131 36657 ft 534 kts 93°
2026-05-07 15:09 -36.45539 162.48198 36654 ft 538 kts 93°
2026-05-07 15:09 -36.46757 162.57326 36662 ft 537 kts 93°
2026-05-07 15:10 -36.47972 162.66490 36654 ft 538 kts 92°
2026-05-07 15:10 -36.49173 162.75598 36655 ft 537 kts 92°
2026-05-07 15:11 -36.50365 162.84708 36660 ft 539 kts 92°
2026-05-07 15:11 -36.51563 162.93904 36665 ft 538 kts 92°
2026-05-07 15:12 -36.52749 163.03079 36672 ft 542 kts 92°
2026-05-07 15:12 -36.53933 163.12294 36672 ft 538 kts 92°
2026-05-07 15:13 -36.55108 163.21519 36684 ft 542 kts 92°
2026-05-07 15:13 -36.56267 163.30662 36689 ft 540 kts 92°
2026-05-07 15:14 -36.57428 163.39882 36696 ft 539 kts 92°
2026-05-07 15:14 -36.58571 163.49017 36704 ft 538 kts 92°
2026-05-07 15:15 -36.59721 163.58269 36698 ft 540 kts 92°
2026-05-07 15:15 -36.60852 163.67429 36703 ft 540 kts 92°
2026-05-07 15:16 -36.61976 163.76587 36707 ft 538 kts 92°
2026-05-07 15:16 -36.63097 163.85786 36708 ft 539 kts 92°
2026-05-07 15:17 -36.64207 163.94951 36713 ft 537 kts 92°
2026-05-07 15:17 -36.65318 164.04192 36725 ft 538 kts 92°
2026-05-07 15:18 -36.66409 164.13315 36718 ft 538 kts 92°
2026-05-07 15:18 -36.67504 164.22548 36723 ft 536 kts 92°
2026-05-07 15:19 -36.68588 164.31738 36737 ft 537 kts 92°
2026-05-07 15:19 -36.69663 164.40921 36742 ft 536 kts 92°
2026-05-07 15:20 -36.70728 164.50078 36737 ft 536 kts 92°
2026-05-07 15:20 -36.71786 164.59244 36747 ft 536 kts 92°
2026-05-07 15:21 -36.72843 164.68457 36740 ft 534 kts 92°
2026-05-07 15:21 -36.73884 164.77603 36731 ft 536 kts 92°
2026-05-07 15:22 -36.74921 164.86774 36744 ft 534 kts 92°
2026-05-07 15:22 -36.75946 164.95900 36745 ft 535 kts 92°
2026-05-07 15:23 -36.76971 165.05093 36752 ft 532 kts 92°
2026-05-07 15:23 -36.77977 165.14188 36744 ft 535 kts 92°
2026-05-07 15:24 -36.78987 165.23372 36745 ft 531 kts 93°
2026-05-07 15:24 -36.79981 165.32483 36770 ft 534 kts 92°
2026-05-07 15:25 -36.80979 165.41699 36764 ft 534 kts 93°
2026-05-07 15:25 -36.81969 165.50911 36776 ft 535 kts 93°
2026-05-07 15:26 -36.82944 165.60039 36783 ft 534 kts 93°
2026-05-07 15:26 -36.83913 165.69188 36730 ft 531 kts 92°
2026-05-07 15:27 -36.84877 165.78365 36762 ft 533 kts 92°
2026-05-07 15:27 -36.85832 165.87511 36774 ft 533 kts 92°
2026-05-07 15:28 -36.86783 165.96696 36773 ft 532 kts 93°
2026-05-07 15:28 -36.87722 166.05839 36776 ft 534 kts 92°
2026-05-07 15:29 -36.88652 166.14955 36785 ft 532 kts 92°
2026-05-07 15:29 -36.89581 166.24139 36777 ft 532 kts 92°
2026-05-07 15:30 -36.90500 166.33299 36793 ft 533 kts 93°
2026-05-07 15:30 -36.91409 166.42415 36798 ft 532 kts 92°
2026-05-07 15:31 -36.92319 166.51639 36809 ft 533 kts 93°
2026-05-07 15:31 -36.93221 166.60840 36806 ft 533 kts 93°
2026-05-07 15:32 -36.94109 166.69960 36807 ft 531 kts 92°
2026-05-07 15:32 -36.94997 166.79178 36802 ft 532 kts 92°
2026-05-07 15:33 -36.95867 166.88286 36806 ft 533 kts 92°
2026-05-07 15:33 -36.96740 166.97487 36807 ft 532 kts 92°
2026-05-07 15:34 -36.97605 167.06683 36805 ft 534 kts 92°
2026-05-07 15:34 -36.98463 167.15880 36812 ft 533 kts 92°
2026-05-07 15:35 -36.99315 167.25098 36820 ft 534 kts 92°
2026-05-07 15:35 -37.00158 167.34297 36836 ft 531 kts 92°
2026-05-07 15:36 -37.00988 167.43437 36828 ft 534 kts 92°
2026-05-07 15:36 -37.01819 167.52658 36824 ft 531 kts 92°
2026-05-07 15:37 -37.02634 167.61783 36853 ft 534 kts 92°
2026-05-07 15:37 -37.03451 167.71019 37006 ft 532 kts 91°
2026-05-07 15:38 -37.03861 167.75676 36847 ft 532 kts 92°
2026-05-07 15:38 -37.04263 167.80250 36638 ft 526 kts 91°
2026-05-07 15:38 -37.04659 167.84796 36972 ft 529 kts 92°
2026-05-07 15:38 -37.05058 167.89418 36851 ft 533 kts 92°
2026-05-07 15:39 -37.05845 167.98549 36853 ft 530 kts 92°
2026-05-07 15:39 -37.06630 168.07750 36861 ft 530 kts 92°
2026-05-07 15:40 -37.07406 168.16919 36862 ft 530 kts 92°
2026-05-07 15:40 -37.08171 168.26050 36701 ft 529 kts 92°
2026-05-07 15:41 -37.08556 168.30681 37037 ft 532 kts 92°
2026-05-07 15:41 -37.08933 168.35246 36748 ft 533 kts 92°
2026-05-07 15:41 -37.09316 168.39891 36875 ft 533 kts 92°
2026-05-07 15:41 -37.09692 168.44478 36894 ft 534 kts 92°
2026-05-07 15:42 -37.10440 168.53659 36868 ft 529 kts 92°
2026-05-07 15:42 -37.11180 168.62845 36878 ft 532 kts 92°
2026-05-07 15:43 -37.11919 168.72093 36864 ft 530 kts 91°
2026-05-07 15:43 -37.12644 168.81262 36866 ft 530 kts 91°
2026-05-07 15:44 -37.13363 168.90459 36878 ft 533 kts 91°
2026-05-07 15:44 -37.14072 168.99603 36868 ft 529 kts 92°
2026-05-07 15:45 -37.14777 169.08798 36890 ft 531 kts 91°
2026-05-07 15:45 -37.15474 169.17981 36886 ft 528 kts 91°
2026-05-07 15:46 -37.16505 169.31740 36904 ft 531 kts 92°
2026-05-07 15:47 -37.17183 169.40912 36909 ft 529 kts 92°
2026-05-07 15:47 -37.17854 169.50081 36916 ft 530 kts 91°
2026-05-07 15:48 -37.18521 169.59296 36907 ft 530 kts 92°
2026-05-07 15:48 -37.19177 169.68468 36912 ft 529 kts 91°
2026-05-07 15:49 -37.19827 169.77634 36909 ft 528 kts 91°
2026-05-07 15:49 -37.20468 169.86792 36921 ft 529 kts 91°
2026-05-07 15:50 -37.21100 169.95918 36889 ft 528 kts 91°
2026-05-07 15:50 -37.21729 170.05110 37127 ft 529 kts 91°
2026-05-07 15:50 -37.22045 170.09770 36728 ft 531 kts 91°
2026-05-07 15:51 -37.22353 170.14319 36903 ft 526 kts 91°
2026-05-07 15:51 -37.22965 170.23483 36938 ft 529 kts 91°
2026-05-07 15:52 -37.23573 170.32677 36956 ft 531 kts 91°
2026-05-07 15:52 -37.24174 170.41881 36958 ft 531 kts 92°
2026-05-07 15:53 -37.24771 170.51114 36962 ft 528 kts 91°
2026-05-07 15:53 -37.25354 170.60281 36977 ft 531 kts 91°
2026-05-07 15:54 -37.25508 170.69484 36966 ft 526 kts 84°
2026-05-07 15:54 -37.25295 170.78635 36972 ft 529 kts 84°
2026-05-07 15:55 -37.25057 170.87828 36977 ft 525 kts 84°
2026-05-07 15:55 -37.24800 170.97075 36983 ft 528 kts 84°
2026-05-07 15:56 -37.24534 171.06258 36979 ft 525 kts 84°
2026-05-07 15:56 -37.24258 171.15395 36985 ft 524 kts 84°
2026-05-07 15:57 -37.23975 171.24493 36992 ft 528 kts 84°
2026-05-07 15:57 -37.23682 171.33672 36992 ft 525 kts 84°
2026-05-07 15:58 -37.23381 171.42845 36993 ft 524 kts 84°
2026-05-07 15:58 -37.23073 171.51993 37006 ft 527 kts 84°
2026-05-07 15:59 -37.22759 171.61151 37011 ft 525 kts 84°
2026-05-07 15:59 -37.22440 171.70235 36996 ft 523 kts 84°
2026-05-07 16:00 -37.22110 171.79376 36998 ft 528 kts 84°
2026-05-07 16:00 -37.21776 171.88501 36998 ft 524 kts 84°
2026-05-07 16:01 -37.21434 171.97624 37001 ft 524 kts 84°
2026-05-07 16:01 -37.21087 172.06712 36675 ft 518 kts 84°
2026-05-07 16:01 -37.20912 172.11211 35750 ft 524 kts 84°
2026-05-07 16:02 -37.20733 172.15753 35050 ft 526 kts 83°
2026-05-07 16:02 -37.20551 172.20351 34288 ft 530 kts 84°
2026-05-07 16:02 -37.20364 172.25000 33335 ft 532 kts 84°
2026-05-07 16:02 -37.20178 172.29607 32448 ft 531 kts 84°
2026-05-07 16:03 -37.19991 172.34213 31592 ft 530 kts 84°
2026-05-07 16:03 -37.19804 172.38773 30754 ft 525 kts 84°
2026-05-07 16:03 -37.19618 172.43292 30261 ft 513 kts 84°
2026-05-07 16:03 -37.19434 172.47729 29811 ft 501 kts 84°
2026-05-07 16:04 -37.19253 172.52002 29345 ft 495 kts 84°
2026-05-07 16:04 -37.19069 172.56328 28803 ft 490 kts 84°
2026-05-07 16:04 -37.18887 172.60568 28276 ft 486 kts 84°
2026-05-07 16:04 -37.18704 172.64769 27757 ft 481 kts 83°
2026-05-07 16:05 -37.18522 172.68924 27224 ft 477 kts 83°
2026-05-07 16:05 -37.18340 172.73061 26702 ft 472 kts 83°
2026-05-07 16:05 -37.18158 172.77162 26175 ft 468 kts 83°
2026-05-07 16:05 -37.17976 172.81220 25650 ft 464 kts 83°
2026-05-07 16:06 -37.17795 172.85229 25132 ft 459 kts 83°
2026-05-07 16:06 -37.17616 172.89168 24612 ft 455 kts 83°
2026-05-07 16:06 -37.17434 172.93149 24090 ft 451 kts 83°
2026-05-07 16:06 -37.17254 172.97055 23567 ft 447 kts 83°
2026-05-07 16:07 -37.17076 173.00874 23050 ft 444 kts 83°
2026-05-07 16:07 -37.16896 173.04735 22531 ft 440 kts 83°
2026-05-07 16:07 -37.16716 173.08556 22005 ft 437 kts 83°
2026-05-07 16:07 -37.16535 173.12358 21475 ft 434 kts 82°
2026-05-07 16:08 -37.16356 173.16116 20950 ft 431 kts 83°
2026-05-07 16:08 -37.16178 173.19821 20420 ft 429 kts 83°
2026-05-07 16:08 -37.15997 173.23553 19889 ft 426 kts 83°
2026-05-07 16:08 -37.15818 173.27229 19361 ft 423 kts 83°
2026-05-07 16:09 -37.15639 173.30888 18829 ft 421 kts 83°
2026-05-07 16:09 -37.15460 173.34520 18304 ft 418 kts 82°
2026-05-07 16:09 -37.15281 173.38132 17768 ft 416 kts 82°
2026-05-07 16:09 -37.15100 173.41739 17232 ft 414 kts 82°
2026-05-07 16:10 -37.14920 173.45334 16696 ft 411 kts 82°
2026-05-07 16:10 -37.14717 173.48883 16156 ft 409 kts 82°
2026-05-07 16:10 -37.14505 173.52414 15615 ft 406 kts 82°
2026-05-07 16:10 -37.14294 173.55913 15068 ft 404 kts 82°
2026-05-07 16:11 -37.14083 173.59416 14517 ft 401 kts 82°
2026-05-07 16:11 -37.13875 173.62868 13975 ft 398 kts 82°
2026-05-07 16:11 -37.13665 173.66330 13490 ft 390 kts 82°
2026-05-07 16:11 -37.13466 173.69641 13369 ft 371 kts 82°
2026-05-07 16:12 -37.13277 173.72771 13173 ft 356 kts 82°
2026-05-07 16:12 -37.13087 173.75865 12700 ft 351 kts 82°
2026-05-07 16:12 -37.12895 173.78961 12205 ft 351 kts 82°
2026-05-07 16:12 -37.12704 173.82053 11722 ft 350 kts 82°
2026-05-07 16:13 -37.12516 173.85078 11264 ft 348 kts 82°
2026-05-07 16:13 -37.12331 173.88075 10818 ft 346 kts 82°
2026-05-07 16:13 -37.12141 173.91106 10396 ft 343 kts 82°
2026-05-07 16:13 -37.11960 173.94009 10254 ft 327 kts 82°
2026-05-07 16:14 -37.11788 173.96756 10187 ft 309 kts 82°
2026-05-07 16:14 -37.11621 173.99393 10086 ft 294 kts 82°
2026-05-07 16:14 -37.11461 174.01910 9961 ft 285 kts 82°
2026-05-07 16:14 -37.11299 174.04405 9592 ft 285 kts 82°
2026-05-07 16:15 -37.11138 174.06900 9203 ft 286 kts 82°
2026-05-07 16:15 -37.10978 174.09383 8845 ft 286 kts 82°
2026-05-07 16:15 -37.10816 174.11900 8500 ft 285 kts 82°
2026-05-07 16:15 -37.10657 174.14371 8162 ft 284 kts 82°
2026-05-07 16:16 -37.10499 174.16832 7818 ft 284 kts 82°
2026-05-07 16:16 -37.10342 174.19267 7482 ft 283 kts 82°
2026-05-07 16:16 -37.10180 174.21777 7141 ft 282 kts 82°
2026-05-07 16:16 -37.10022 174.24205 6845 ft 279 kts 82°
2026-05-07 16:17 -37.09865 174.26625 6539 ft 278 kts 82°
2026-05-07 16:17 -37.09708 174.29019 6228 ft 276 kts 82°
2026-05-07 16:17 -37.09550 174.31438 5952 ft 273 kts 81°
2026-05-07 16:17 -37.09393 174.33803 5680 ft 270 kts 81°
2026-05-07 16:18 -37.09235 174.36168 5403 ft 265 kts 81°
2026-05-07 16:18 -37.09083 174.38448 5139 ft 260 kts 81°
2026-05-07 16:18 -37.08934 174.40677 4882 ft 256 kts 80°
2026-05-07 16:18 -37.08787 174.42860 4628 ft 251 kts 80°
2026-05-07 16:19 -37.08641 174.45021 4384 ft 248 kts 80°
2026-05-07 16:19 -37.08495 174.47165 4129 ft 246 kts 80°
2026-05-07 16:19 -37.08427 174.49301 3858 ft 244 kts 83°
2026-05-07 16:19 -37.08311 174.51410 3607 ft 235 kts 78°
2026-05-07 16:20 -37.08049 174.53383 3366 ft 216 kts 72°
2026-05-07 16:20 -37.07711 174.55093 3168 ft 194 kts 68°
2026-05-07 16:20 -37.07313 174.56661 2978 ft 179 kts 65°
2026-05-07 16:20 -37.06919 174.58061 2818 ft 163 kts 63°
2026-05-07 16:21 -37.06549 174.59363 2659 ft 145 kts 63°
2026-05-07 16:21 -37.06217 174.60533 2520 ft 142 kts 62°
2026-05-07 16:21 -37.05890 174.61711 2372 ft 140 kts 63°
2026-05-07 16:21 -37.05569 174.62875 2212 ft 139 kts 62°
2026-05-07 16:22 -37.05253 174.64018 2070 ft 138 kts 62°
2026-05-07 16:22 -37.04934 174.65169 1899 ft 138 kts 62°
2026-05-07 16:22 -37.04623 174.66304 1738 ft 136 kts 62°
2026-05-07 16:22 -37.04301 174.67459 1566 ft 138 kts 62°
2026-05-07 16:23 -37.03989 174.68590 1395 ft 137 kts 63°
2026-05-07 16:23 -37.03676 174.69724 1215 ft 137 kts 64°
2026-05-07 16:23 -37.03357 174.70874 1045 ft 140 kts 64°
2026-05-07 16:23 -37.03040 174.72017 870 ft 138 kts 65°
2026-05-07 16:24 -37.02721 174.73164 686 ft 138 kts 66°
2026-05-07 16:24 -37.02402 174.74322 498 ft 138 kts 66°
2026-05-07 16:24 -37.02077 174.75481 305 ft 140 kts 66°
2026-05-07 16:24 -37.01754 174.76642 147 ft 144 kts 68°
2026-05-07 16:25 -37.01423 174.77858 39 ft 137 kts 68°
2026-05-07 16:25 -37.01142 174.78832 32 ft 95 kts 72°
2026-05-07 16:25 -37.00990 174.79399 35 ft 38 kts 69°
2026-05-07 16:25 -37.00876 174.79620 38 ft 24 kts 47°
2026-05-07 16:26 -37.00813 174.79697 39 ft 5 kts 37°
2026-05-07 16:26 -37.00785 174.79718 40 ft 3 kts 26°
2026-05-07 16:26 -37.00749 174.79727 41 ft 5 kts 356°
2026-05-07 16:26 -37.00724 174.79701 41 ft 6 kts 279°
2026-05-07 16:27 -37.00738 174.79613 39 ft 13 kts 249°
2026-05-07 16:27 -37.00778 174.79478 38 ft 18 kts 251°
2026-05-07 16:27 -37.00819 174.79320 35 ft 19 kts 251°
2026-05-07 16:27 -37.00863 174.79175 38 ft 16 kts 249°
2026-05-07 16:28 -37.00898 174.79039 37 ft 16 kts 252°
2026-05-07 16:28 -37.00934 174.78900 34 ft 17 kts 250°
2026-05-07 16:28 -37.00976 174.78755 32 ft 17 kts 250°
2026-05-07 16:28 -37.01016 174.78610 32 ft 16 kts 251°
2026-05-07 16:29 -37.01055 174.78474 32 ft 16 kts 250°
2026-05-07 16:29 -37.01069 174.78342 32 ft 14 kts 287°
2026-05-07 16:29 -37.00996 174.78256 32 ft 14 kts 323°
2026-05-07 16:29 -37.00937 174.78169 33 ft 12 kts 301°
2026-05-07 16:30 -37.00898 174.78098 35 ft 6 kts 340°
2026-05-07 16:30 -37.00858 174.78119 35 ft 6 kts 39°
2026-05-07 16:30 -37.00831 174.78146 35 ft 0 kts 39°